Вернуться в каталог

THORAD AGENA D DEB *

АктивенSSO
NORAD 6159·DEBRIS·🇺🇸 United States

Запущен Apr 8, 1970 с Vandenberg Space Force Base

Loading…

Ближайшие Пролёты (ближайшие 24 часа)

TLE

СвежийSource: Space-Track

Эпоха: Sep 13, 2026, 08:54 UTC

1 06159U 70025MY  26256.37116944  .00000562  00000-0  22818-2 0  9997
2 06159 101.1871  41.9434 0054581  25.2434   2.7185 12.90968443667143

Отслеживайте THORAD AGENA D DEB * в реальном времени с AllMySat

Download on the App Store